DAL242 KATL-KATW

Flight info

Callsign DAL242
Flight time 1h 57m
Altitude 38000
Route VARNM2 RESPE IIU J89 BAE
Aircraft B738/M-SDE2E3FGHIRWXY/LB1

Departure

Time 2026-05-07 12:57
Airport Hartsfield Jackson Atlanta International Airport (KATL)

Arrival

Time 2026-05-07 14:54
Airport Appleton International Airport (KATW)
Time Latitude Longitude Altitude Speed Heading
2026-05-07 12:36 33.64344 -84.42869 1034 ft 0 kts 270°
2026-05-07 12:44 33.64344 -84.42853 1034 ft 2 kts 270°
2026-05-07 12:45 33.64345 -84.42832 1034 ft 3 kts 243°
2026-05-07 12:45 33.64357 -84.42819 1034 ft 2 kts 181°
2026-05-07 12:45 33.64374 -84.42826 1034 ft 3 kts 122°
2026-05-07 12:45 33.64379 -84.42840 1034 ft 0 kts 110°
2026-05-07 12:49 33.64378 -84.42821 1034 ft 7 kts 84°
2026-05-07 12:50 33.64420 -84.42774 1034 ft 9 kts 15°
2026-05-07 12:50 33.64499 -84.42755 1034 ft 12 kts 26°
2026-05-07 12:50 33.64543 -84.42649 1034 ft 18 kts 86°
2026-05-07 12:50 33.64543 -84.42497 1034 ft 17 kts 90°
2026-05-07 12:51 33.64544 -84.42341 1034 ft 19 kts 91°
2026-05-07 12:51 33.64542 -84.42280 1034 ft 20 kts 90°
2026-05-07 12:51 33.64542 -84.42253 1034 ft 20 kts 90°
2026-05-07 12:52 33.64542 -84.42103 1034 ft 18 kts 91°
2026-05-07 12:52 33.64541 -84.41958 1034 ft 17 kts 89°
2026-05-07 12:52 33.64543 -84.41819 1034 ft 13 kts 88°
2026-05-07 12:52 33.64543 -84.41781 1034 ft 0 kts 89°
2026-05-07 12:53 33.64571 -84.41759 1035 ft 10 kts 32°
2026-05-07 12:53 33.64616 -84.41647 1035 ft 21 kts 90°
2026-05-07 12:53 33.64561 -84.41520 1035 ft 17 kts 127°
2026-05-07 12:54 33.64543 -84.41347 1035 ft 25 kts 90°
2026-05-07 12:54 33.64544 -84.41113 1035 ft 29 kts 90°
2026-05-07 12:54 33.64545 -84.40915 1034 ft 20 kts 89°
2026-05-07 12:54 33.64598 -84.40810 1034 ft 1 kts
2026-05-07 12:55 33.64604 -84.40810 1034 ft 0 kts 359°
2026-05-07 12:55 33.64608 -84.40810 1033 ft 4 kts 357°
2026-05-07 12:55 33.64620 -84.40812 1033 ft 2 kts 352°
2026-05-07 12:55 33.64639 -84.40818 1033 ft 3 kts 338°
2026-05-07 12:56 33.64668 -84.40851 1034 ft 8 kts 301°
2026-05-07 12:56 33.64679 -84.40917 1035 ft 2 kts 272°
2026-05-07 12:56 33.64680 -84.40998 1035 ft 25 kts 270°
2026-05-07 12:56 33.64681 -84.41420 1037 ft 84 kts 270°
2026-05-07 12:57 33.64680 -84.42413 1033 ft 150 kts 269°
2026-05-07 12:57 33.64633 -84.43821 1454 ft 169 kts 269°
2026-05-07 12:57 33.64405 -84.45329 1880 ft 207 kts 259°
2026-05-07 12:57 33.64131 -84.47136 2205 ft 225 kts 280°
2026-05-07 12:58 33.64644 -84.48978 2535 ft 246 kts 308°
2026-05-07 12:58 33.65680 -84.50651 3305 ft 254 kts 309°
2026-05-07 12:58 33.66732 -84.52372 4087 ft 258 kts 309°
2026-05-07 12:58 33.67853 -84.54056 4925 ft 260 kts 309°
2026-05-07 12:59 33.69085 -84.55643 5891 ft 262 kts 323°
2026-05-07 12:59 33.70846 -84.56341 6624 ft 279 kts 355°
2026-05-07 12:59 33.72813 -84.56131 7360 ft 287 kts 360°
2026-05-07 12:59 33.74785 -84.56345 8107 ft 285 kts 344°
2026-05-07 13:00 33.76740 -84.56812 8901 ft 288 kts 344°
2026-05-07 13:00 33.78725 -84.57267 9618 ft 293 kts 344°
2026-05-07 13:00 33.80745 -84.57707 10403 ft 296 kts 344°
2026-05-07 13:00 33.82846 -84.58153 10654 ft 319 kts 343°
2026-05-07 13:01 33.85112 -84.58622 10852 ft 341 kts 344°
2026-05-07 13:01 33.87525 -84.59107 11012 ft 361 kts 345°
2026-05-07 13:01 33.90064 -84.59609 11233 ft 378 kts 344°
2026-05-07 13:01 33.92654 -84.60088 11786 ft 383 kts 345°
2026-05-07 13:02 33.95275 -84.60571 12537 ft 381 kts 344°
2026-05-07 13:02 33.97915 -84.61063 13133 ft 385 kts 343°
2026-05-07 13:02 34.00534 -84.61557 13668 ft 390 kts 343°
2026-05-07 13:02 34.03274 -84.62075 14222 ft 393 kts 343°
2026-05-07 13:03 34.05983 -84.62586 14846 ft 395 kts 342°
2026-05-07 13:03 34.08706 -84.63098 15421 ft 398 kts 342°
2026-05-07 13:03 34.11453 -84.63615 15889 ft 402 kts 341°
2026-05-07 13:03 34.14226 -84.64142 16388 ft 404 kts 341°
2026-05-07 13:04 34.17013 -84.64669 16913 ft 406 kts 341°
2026-05-07 13:04 34.19817 -84.65200 17380 ft 410 kts 341°
2026-05-07 13:04 34.22645 -84.65738 17804 ft 413 kts 340°
2026-05-07 13:04 34.25490 -84.66276 18240 ft 416 kts 340°
2026-05-07 13:05 34.28363 -84.66820 18697 ft 419 kts 340°
2026-05-07 13:05 34.31245 -84.67367 19143 ft 421 kts 340°
2026-05-07 13:05 34.34154 -84.67917 19518 ft 424 kts 340°
2026-05-07 13:05 34.35963 -84.68262 19688 ft 428 kts 340°
2026-05-07 13:06 34.38182 -84.68685 19948 ft 430 kts 340°
2026-05-07 13:06 34.41140 -84.69247 20315 ft 433 kts 341°
2026-05-07 13:06 34.44122 -84.69814 20669 ft 436 kts 341°
2026-05-07 13:07 34.47141 -84.70388 21029 ft 439 kts 341°
2026-05-07 13:07 34.50162 -84.70962 21388 ft 441 kts 341°
2026-05-07 13:07 34.53173 -84.71535 21680 ft 445 kts 341°
2026-05-07 13:07 34.56237 -84.72119 21982 ft 447 kts 341°
2026-05-07 13:08 34.59316 -84.72707 22303 ft 449 kts 341°
2026-05-07 13:08 34.62416 -84.73298 22582 ft 452 kts 341°
2026-05-07 13:08 34.65536 -84.73893 22861 ft 455 kts 341°
2026-05-07 13:08 34.68665 -84.74491 23154 ft 457 kts 341°
2026-05-07 13:09 34.71813 -84.75093 23466 ft 458 kts 341°
2026-05-07 13:09 34.74975 -84.75698 23704 ft 461 kts 341°
2026-05-07 13:09 34.78152 -84.76307 23957 ft 464 kts 341°
2026-05-07 13:09 34.81344 -84.76919 24240 ft 465 kts 341°
2026-05-07 13:10 34.84548 -84.77534 24496 ft 467 kts 341°
2026-05-07 13:10 34.87761 -84.78151 24740 ft 468 kts 341°
2026-05-07 13:10 34.90986 -84.78771 24992 ft 470 kts 340°
2026-05-07 13:10 34.94223 -84.79393 25199 ft 472 kts 340°
2026-05-07 13:11 34.97481 -84.80022 25406 ft 475 kts 340°
2026-05-07 13:11 35.00748 -84.80651 25618 ft 477 kts 340°
2026-05-07 13:11 35.04029 -84.81285 25836 ft 479 kts 340°
2026-05-07 13:11 35.07330 -84.81922 26065 ft 480 kts 340°
2026-05-07 13:12 35.10630 -84.82558 26296 ft 481 kts 340°
2026-05-07 13:12 35.13948 -84.83199 26518 ft 482 kts 340°
2026-05-07 13:12 35.17269 -84.83841 26721 ft 484 kts 339°
2026-05-07 13:12 35.20600 -84.84487 26930 ft 485 kts 339°
2026-05-07 13:13 35.23929 -84.85132 27132 ft 486 kts 339°
2026-05-07 13:13 35.27271 -84.85780 27375 ft 486 kts 339°
2026-05-07 13:13 35.30608 -84.86425 27686 ft 485 kts 339°
2026-05-07 13:13 35.33931 -84.87068 28045 ft 482 kts 339°
2026-05-07 13:14 35.37202 -84.87701 28370 ft 481 kts 338°
2026-05-07 13:14 35.40506 -84.88346 28577 ft 482 kts 338°
2026-05-07 13:14 35.43823 -84.88996 28753 ft 484 kts 338°
2026-05-07 13:14 35.47149 -84.89646 29068 ft 483 kts 338°
2026-05-07 13:15 35.50459 -84.90290 29437 ft 481 kts 338°
2026-05-07 13:15 35.53761 -84.90934 29815 ft 479 kts 338°
2026-05-07 13:15 35.57045 -84.91575 30148 ft 478 kts 337°
2026-05-07 13:15 35.60334 -84.92227 30442 ft 476 kts 336°
2026-05-07 13:16 35.63572 -84.92971 30728 ft 472 kts 335°
2026-05-07 13:16 35.66776 -84.93784 31124 ft 467 kts 334°
2026-05-07 13:16 35.69948 -84.94618 31484 ft 465 kts 333°
2026-05-07 13:16 35.73104 -84.95456 31792 ft 464 kts 333°
2026-05-07 13:17 35.76259 -84.96286 32181 ft 461 kts 333°
2026-05-07 13:17 35.79392 -84.97100 32552 ft 460 kts 333°
2026-05-07 13:17 35.82522 -84.97906 32895 ft 457 kts 333°
2026-05-07 13:17 35.85628 -84.98699 33234 ft 455 kts 333°
2026-05-07 13:18 35.88693 -84.99483 33435 ft 456 kts 333°
2026-05-07 13:18 35.91808 -85.00283 33631 ft 457 kts 333°
2026-05-07 13:18 35.94918 -85.01078 33914 ft 456 kts 333°
2026-05-07 13:18 35.98024 -85.01868 34241 ft 453 kts 332°
2026-05-07 13:19 36.01110 -85.02654 34518 ft 452 kts 332°
2026-05-07 13:19 36.04192 -85.03442 34720 ft 452 kts 332°
2026-05-07 13:19 36.07271 -85.04232 34978 ft 451 kts 331°
2026-05-07 13:19 36.10331 -85.05015 35350 ft 446 kts 331°
2026-05-07 13:20 36.13363 -85.05788 35661 ft 444 kts 331°
2026-05-07 13:20 36.16387 -85.06567 35827 ft 445 kts 331°
2026-05-07 13:20 36.19422 -85.07353 35959 ft 446 kts 331°
2026-05-07 13:20 36.22463 -85.08140 36151 ft 446 kts 331°
2026-05-07 13:21 36.25500 -85.08922 36378 ft 445 kts 331°
2026-05-07 13:21 36.28532 -85.09702 36576 ft 445 kts 331°
2026-05-07 13:21 36.31561 -85.10482 36799 ft 443 kts 331°
2026-05-07 13:21 36.34552 -85.11243 37300 ft 434 kts 331°
2026-05-07 13:22 36.37485 -85.11987 37730 ft 428 kts 330°
2026-05-07 13:22 36.40364 -85.12729 37781 ft 430 kts 330°
2026-05-07 13:22 36.46254 -85.14276 37849 ft 434 kts 330°
2026-05-07 13:23 36.49206 -85.15045 38014 ft 433 kts 330°
2026-05-07 13:23 36.52161 -85.15813 38025 ft 435 kts 330°
2026-05-07 13:23 36.58083 -85.17350 38038 ft 434 kts 330°
2026-05-07 13:24 36.63964 -85.18867 38044 ft 429 kts 330°
2026-05-07 13:24 36.69782 -85.20378 38043 ft 425 kts 330°
2026-05-07 13:25 36.75550 -85.21881 38059 ft 422 kts 330°
2026-05-07 13:25 36.81301 -85.23387 38067 ft 421 kts 330°
2026-05-07 13:26 36.87033 -85.24891 38060 ft 422 kts 329°
2026-05-07 13:26 36.92754 -85.26393 38062 ft 423 kts 330°
2026-05-07 13:27 36.98523 -85.27911 38055 ft 425 kts 330°
2026-05-07 13:27 37.04329 -85.29440 38057 ft 428 kts 330°
2026-05-07 13:28 37.10217 -85.30989 38060 ft 431 kts 330°
2026-05-07 13:28 37.16062 -85.32527 38083 ft 433 kts 330°
2026-05-07 13:29 37.21972 -85.34085 38092 ft 434 kts 330°
2026-05-07 13:29 37.27879 -85.35643 38119 ft 434 kts 330°
2026-05-07 13:30 37.33785 -85.37205 38124 ft 433 kts 330°
2026-05-07 13:30 37.39679 -85.38767 38117 ft 432 kts 329°
2026-05-07 13:31 37.45551 -85.40326 38109 ft 431 kts 329°
2026-05-07 13:31 37.51368 -85.41872 38097 ft 429 kts 329°
2026-05-07 13:32 37.57194 -85.43424 38094 ft 427 kts 329°
2026-05-07 13:32 37.62994 -85.44970 38091 ft 425 kts 329°
2026-05-07 13:33 37.68771 -85.46516 38073 ft 423 kts 329°
2026-05-07 13:33 37.74519 -85.48057 38070 ft 421 kts 329°
2026-05-07 13:34 37.83112 -85.50363 38077 ft 420 kts 329°
2026-05-07 13:35 37.88836 -85.51905 38068 ft 420 kts 329°
2026-05-07 13:35 37.94554 -85.53446 38079 ft 420 kts 329°
2026-05-07 13:36 38.00239 -85.54980 38072 ft 421 kts 329°
2026-05-07 13:36 38.05969 -85.56529 38088 ft 422 kts 329°
2026-05-07 13:37 38.11580 -85.58364 38053 ft 400 kts 319°
2026-05-07 13:37 38.14073 -85.59801 38155 ft 391 kts 316°
2026-05-07 13:37 38.16540 -85.61276 38079 ft 393 kts 316°
2026-05-07 13:38 38.21494 -85.64242 38080 ft 395 kts 317°
2026-05-07 13:38 38.25646 -85.66707 38090 ft 397 kts 317°
2026-05-07 13:39 38.30660 -85.69669 38090 ft 398 kts 317°
2026-05-07 13:39 38.35686 -85.72631 38090 ft 399 kts 317°
2026-05-07 13:40 38.40727 -85.75609 38088 ft 399 kts 317°
2026-05-07 13:40 38.45769 -85.78592 38082 ft 400 kts 317°
2026-05-07 13:41 38.50823 -85.81587 38080 ft 399 kts 317°
2026-05-07 13:41 38.55827 -85.84556 38099 ft 399 kts 317°
2026-05-07 13:42 38.60850 -85.87540 38091 ft 398 kts 317°
2026-05-07 13:42 38.65883 -85.90539 38094 ft 398 kts 317°
2026-05-07 13:43 38.68149 -85.91890 38104 ft 398 kts 317°
2026-05-07 13:43 38.73178 -85.94894 38101 ft 398 kts 317°
2026-05-07 13:44 38.78208 -85.97901 38089 ft 399 kts 318°
2026-05-07 13:44 38.83239 -86.00914 38099 ft 399 kts 318°
2026-05-07 13:45 38.88273 -86.03934 38097 ft 400 kts 318°
2026-05-07 13:45 38.93318 -86.06966 38101 ft 401 kts 318°
2026-05-07 13:46 38.98381 -86.10009 38104 ft 402 kts 319°
2026-05-07 13:46 39.03436 -86.13050 38106 ft 404 kts 319°
2026-05-07 13:47 39.08547 -86.16128 38089 ft 406 kts 319°
2026-05-07 13:47 39.13677 -86.19222 38099 ft 408 kts 319°
2026-05-07 13:48 39.18827 -86.22334 38084 ft 410 kts 319°
2026-05-07 13:48 39.24006 -86.25467 38090 ft 412 kts 319°
2026-05-07 13:49 39.29200 -86.28613 38105 ft 413 kts 320°
2026-05-07 13:49 39.34414 -86.31779 38101 ft 415 kts 320°
2026-05-07 13:50 39.39649 -86.34962 38090 ft 416 kts 320°
2026-05-07 13:50 39.44890 -86.38151 38091 ft 416 kts 320°
2026-05-07 13:51 39.50132 -86.41349 38090 ft 416 kts 320°
2026-05-07 13:51 39.55369 -86.44548 38102 ft 416 kts 320°
2026-05-07 13:52 39.60566 -86.47732 38087 ft 415 kts 320°
2026-05-07 13:52 39.65790 -86.50934 38104 ft 415 kts 320°
2026-05-07 13:53 39.71009 -86.54140 38100 ft 415 kts 320°
2026-05-07 13:53 39.72823 -86.55255 38093 ft 415 kts 320°
2026-05-07 13:54 39.75023 -86.56610 38098 ft 414 kts 320°
2026-05-07 13:56 39.78183 -86.58557 38105 ft 414 kts 320°
2026-05-07 13:56 39.83393 -86.61769 38091 ft 415 kts 320°
2026-05-07 13:57 39.88614 -86.64992 38103 ft 415 kts 320°
2026-05-07 13:57 39.93792 -86.68201 38094 ft 414 kts 320°
2026-05-07 13:58 39.98998 -86.71428 38102 ft 414 kts 320°
2026-05-07 13:58 39.99523 -86.71754 38100 ft 414 kts 320°
2026-05-07 13:59 40.04721 -86.74984 38097 ft 413 kts 321°
2026-05-07 13:59 40.09915 -86.78223 38105 ft 414 kts 321°
2026-05-07 14:00 40.15114 -86.81472 38088 ft 415 kts 321°
2026-05-07 14:00 40.20337 -86.84740 38104 ft 416 kts 321°
2026-05-07 14:01 40.25571 -86.88019 38087 ft 418 kts 321°
2026-05-07 14:01 40.30832 -86.91315 38092 ft 420 kts 321°
2026-05-07 14:02 40.36017 -86.94546 38123 ft 399 kts 321°
2026-05-07 14:02 40.40896 -86.97592 38118 ft 377 kts 320°
2026-05-07 14:02 40.43228 -86.99058 38099 ft 365 kts 320°
2026-05-07 14:03 40.45457 -87.00463 38090 ft 354 kts 319°
2026-05-07 14:03 40.47638 -87.01843 38071 ft 343 kts 319°
2026-05-07 14:03 40.49757 -87.03185 38080 ft 333 kts 319°
2026-05-07 14:04 40.53816 -87.05748 38079 ft 315 kts 318°
2026-05-07 14:04 40.57736 -87.08068 38079 ft 305 kts 321°
2026-05-07 14:04 40.59698 -87.09069 38068 ft 299 kts 322°
2026-05-07 14:05 40.61613 -87.10028 38082 ft 291 kts 321°
2026-05-07 14:05 40.63480 -87.10972 38063 ft 283 kts 320°
2026-05-07 14:05 40.65291 -87.11894 38091 ft 275 kts 320°
2026-05-07 14:05 40.67047 -87.12797 38056 ft 267 kts 319°
2026-05-07 14:06 40.68749 -87.13674 38089 ft 258 kts 319°
2026-05-07 14:06 40.70393 -87.14525 38047 ft 250 kts 318°
2026-05-07 14:06 40.71989 -87.15357 37984 ft 243 kts 318°
2026-05-07 14:06 40.73546 -87.16170 37838 ft 239 kts 317°
2026-05-07 14:07 40.75099 -87.16988 37572 ft 241 kts 317°
2026-05-07 14:07 40.76652 -87.17807 37251 ft 247 kts 318°
2026-05-07 14:07 40.78292 -87.18676 36746 ft 262 kts 319°
2026-05-07 14:07 40.80069 -87.19632 35813 ft 293 kts 321°
2026-05-07 14:08 40.82075 -87.20715 34629 ft 332 kts 322°
2026-05-07 14:08 40.84334 -87.21927 33613 ft 367 kts 324°
2026-05-07 14:08 40.86767 -87.23189 33300 ft 379 kts 325°
2026-05-07 14:08 40.89211 -87.24419 33600 ft 373 kts 325°
2026-05-07 14:09 40.91617 -87.25633 33827 ft 368 kts 324°
2026-05-07 14:09 40.93987 -87.26842 34065 ft 363 kts 324°
2026-05-07 14:09 40.96328 -87.28050 34301 ft 358 kts 324°
2026-05-07 14:09 40.98628 -87.29246 34536 ft 353 kts 323°
2026-05-07 14:10 41.00900 -87.30434 34773 ft 349 kts 323°
2026-05-07 14:10 41.03145 -87.31610 35018 ft 344 kts 323°
2026-05-07 14:10 41.05361 -87.32776 35070 ft 345 kts 323°
2026-05-07 14:11 41.09844 -87.35144 35096 ft 349 kts 324°
2026-05-07 14:11 41.14374 -87.37525 35088 ft 353 kts 324°
2026-05-07 14:12 41.18960 -87.39939 35089 ft 357 kts 324°
2026-05-07 14:12 41.23568 -87.42369 35086 ft 361 kts 324°
2026-05-07 14:13 41.28258 -87.44846 35095 ft 364 kts 324°
2026-05-07 14:13 41.32995 -87.47351 35100 ft 368 kts 324°
2026-05-07 14:14 41.37777 -87.49883 35101 ft 371 kts 325°
2026-05-07 14:14 41.42599 -87.52440 35082 ft 375 kts 325°
2026-05-07 14:15 41.47468 -87.55026 35076 ft 378 kts 325°
2026-05-07 14:15 41.52370 -87.57633 35086 ft 381 kts 326°
2026-05-07 14:16 41.57305 -87.60262 35103 ft 383 kts 326°
2026-05-07 14:16 41.62274 -87.62914 35097 ft 385 kts 326°
2026-05-07 14:17 41.67271 -87.65587 35080 ft 388 kts 326°
2026-05-07 14:17 41.72300 -87.68279 35078 ft 390 kts 326°
2026-05-07 14:18 41.77353 -87.70990 35069 ft 392 kts 326°
2026-05-07 14:18 41.82431 -87.73719 35078 ft 393 kts 326°
2026-05-07 14:19 41.87490 -87.76441 35075 ft 395 kts 326°
2026-05-07 14:19 41.92611 -87.79203 35080 ft 397 kts 326°
2026-05-07 14:20 41.97741 -87.81974 35065 ft 398 kts 326°
2026-05-07 14:20 42.02895 -87.84765 35060 ft 400 kts 326°
2026-05-07 14:21 42.08063 -87.87565 35064 ft 401 kts 327°
2026-05-07 14:21 42.13245 -87.90379 35072 ft 402 kts 326°
2026-05-07 14:22 42.18442 -87.93205 35081 ft 403 kts 327°
2026-05-07 14:22 42.23682 -87.95903 35057 ft 411 kts 332°
2026-05-07 14:23 42.29195 -87.97944 35056 ft 415 kts 334°
2026-05-07 14:23 42.34797 -87.99902 35066 ft 415 kts 334°
2026-05-07 14:24 42.40385 -88.01903 35066 ft 416 kts 333°
2026-05-07 14:24 42.45981 -88.03949 35059 ft 417 kts 333°
2026-05-07 14:25 42.51575 -88.06007 35061 ft 417 kts 334°
2026-05-07 14:25 42.57186 -88.08080 35055 ft 418 kts 334°
2026-05-07 14:26 42.62804 -88.10157 35056 ft 418 kts 334°
2026-05-07 14:26 42.67474 -88.11886 35050 ft 419 kts 334°
2026-05-07 14:27 42.73096 -88.13972 35060 ft 419 kts 334°
2026-05-07 14:27 42.78719 -88.16063 34450 ft 418 kts 334°
2026-05-07 14:27 42.81525 -88.17107 33509 ft 420 kts 334°
2026-05-07 14:28 42.84370 -88.18173 32355 ft 428 kts 335°
2026-05-07 14:28 42.87282 -88.19266 31094 ft 437 kts 335°
2026-05-07 14:28 42.90234 -88.20372 29812 ft 444 kts 336°
2026-05-07 14:28 42.93238 -88.21494 28514 ft 449 kts 336°
2026-05-07 14:29 42.96255 -88.22617 27249 ft 452 kts 337°
2026-05-07 14:29 42.99282 -88.23742 26440 ft 444 kts 338°
2026-05-07 14:29 43.02219 -88.24831 25755 ft 433 kts 338°
2026-05-07 14:29 43.05092 -88.25905 25194 ft 420 kts 338°
2026-05-07 14:30 43.07847 -88.26938 24572 ft 410 kts 338°
2026-05-07 14:30 43.10569 -88.27956 24016 ft 402 kts 339°
2026-05-07 14:30 43.13307 -88.28628 23471 ft 400 kts 350°
2026-05-07 14:30 43.16043 -88.28818 23127 ft 390 kts 351°
2026-05-07 14:31 43.18790 -88.29016 22526 ft 402 kts 351°
2026-05-07 14:31 43.21657 -88.29244 21990 ft 420 kts 351°
2026-05-07 14:31 43.24572 -88.29478 21371 ft 416 kts 351°
2026-05-07 14:31 43.27425 -88.29701 20782 ft 404 kts 351°
2026-05-07 14:32 43.30195 -88.29918 20213 ft 394 kts 351°
2026-05-07 14:32 43.32898 -88.30135 19653 ft 386 kts 351°
2026-05-07 14:32 43.35554 -88.30351 19110 ft 378 kts 351°
2026-05-07 14:32 43.38160 -88.30567 18575 ft 373 kts 351°
2026-05-07 14:33 43.40772 -88.30789 18052 ft 383 kts 351°
2026-05-07 14:33 43.43483 -88.31025 17489 ft 394 kts 351°
2026-05-07 14:33 43.46204 -88.31256 16909 ft 387 kts 352°
2026-05-07 14:33 43.48851 -88.31472 16350 ft 376 kts 352°
2026-05-07 14:34 43.51435 -88.31680 15794 ft 367 kts 352°
2026-05-07 14:34 43.53956 -88.31886 15266 ft 359 kts 352°
2026-05-07 14:34 43.56434 -88.32091 14744 ft 354 kts 352°
2026-05-07 14:34 43.58842 -88.32292 14244 ft 351 kts 352°
2026-05-07 14:35 43.61318 -88.32503 13741 ft 363 kts 352°
2026-05-07 14:35 43.63865 -88.32722 13207 ft 368 kts 352°
2026-05-07 14:35 43.66391 -88.32934 12662 ft 359 kts 352°
2026-05-07 14:35 43.68847 -88.33136 12148 ft 349 kts 352°
2026-05-07 14:36 43.69720 -88.33208 11963 ft 345 kts 352°
2026-05-07 14:36 43.71545 -88.33358 11579 ft 338 kts 352°
2026-05-07 14:36 43.73822 -88.33547 11103 ft 334 kts 352°
2026-05-07 14:37 43.75391 -88.33678 10962 ft 325 kts 352°
2026-05-07 14:37 43.77607 -88.33862 10865 ft 317 kts 352°
2026-05-07 14:38 43.79828 -88.34053 10730 ft 322 kts 352°
2026-05-07 14:38 43.82025 -88.34237 10584 ft 309 kts 352°
2026-05-07 14:38 43.84120 -88.34411 10443 ft 294 kts 352°
2026-05-07 14:38 43.86106 -88.34574 10321 ft 279 kts 352°
2026-05-07 14:39 43.87972 -88.34728 10203 ft 265 kts 352°
2026-05-07 14:39 43.89774 -88.34878 10093 ft 254 kts 351°
2026-05-07 14:39 43.91516 -88.35015 9987 ft 248 kts 355°
2026-05-07 14:39 43.93245 -88.34639 9765 ft 256 kts
2026-05-07 14:40 43.94984 -88.34028 9566 ft 260 kts
2026-05-07 14:40 43.96694 -88.33439 9518 ft 243 kts
2026-05-07 14:40 43.98284 -88.32879 9388 ft 228 kts
2026-05-07 14:40 43.99777 -88.32343 9147 ft 218 kts
2026-05-07 14:41 44.01269 -88.31810 8731 ft 216 kts
2026-05-07 14:41 44.02706 -88.31289 8426 ft 210 kts
2026-05-07 14:41 44.04087 -88.30779 8231 ft 204 kts
2026-05-07 14:41 44.05459 -88.30270 8050 ft 204 kts
2026-05-07 14:42 44.06849 -88.29766 7848 ft 208 kts
2026-05-07 14:42 44.08266 -88.29262 7649 ft 210 kts
2026-05-07 14:42 44.09676 -88.28760 7443 ft 209 kts
2026-05-07 14:42 44.11076 -88.28267 7258 ft 208 kts
2026-05-07 14:43 44.12480 -88.27798 7068 ft 205 kts
2026-05-07 14:43 44.13872 -88.27430 6893 ft 203 kts
2026-05-07 14:43 44.15257 -88.27078 6709 ft 201 kts
2026-05-07 14:43 44.16608 -88.26745 6535 ft 200 kts
2026-05-07 14:44 44.17976 -88.26408 6369 ft 198 kts
2026-05-07 14:44 44.19356 -88.26070 6178 ft 200 kts
2026-05-07 14:44 44.20708 -88.25755 6037 ft 198 kts
2026-05-07 14:44 44.22074 -88.25658 5851 ft 196 kts 356°
2026-05-07 14:45 44.23443 -88.25606 5617 ft 201 kts 356°
2026-05-07 14:45 44.24853 -88.25562 5329 ft 202 kts 356°
2026-05-07 14:45 44.26245 -88.25524 5117 ft 198 kts 356°
2026-05-07 14:45 44.27616 -88.25490 4846 ft 196 kts 356°
2026-05-07 14:46 44.28973 -88.25458 4601 ft 194 kts 356°
2026-05-07 14:46 44.30328 -88.25431 4343 ft 195 kts 356°
2026-05-07 14:46 44.31689 -88.25405 4109 ft 195 kts 356°
2026-05-07 14:46 44.33044 -88.25387 3847 ft 194 kts 356°
2026-05-07 14:47 44.34395 -88.25375 3606 ft 194 kts 356°
2026-05-07 14:47 44.35746 -88.25365 3351 ft 194 kts 356°
2026-05-07 14:47 44.37075 -88.25527 3050 ft 190 kts 333°
2026-05-07 14:47 44.37923 -88.26775 2854 ft 178 kts 289°
2026-05-07 14:48 44.38384 -88.28404 2806 ft 182 kts 295°
2026-05-07 14:48 44.39007 -88.29939 2734 ft 181 kts 302°
2026-05-07 14:48 44.39755 -88.31367 2685 ft 181 kts 308°
2026-05-07 14:48 44.40597 -88.32656 2686 ft 183 kts 313°
2026-05-07 14:49 44.41547 -88.33845 2690 ft 184 kts 318°
2026-05-07 14:49 44.42532 -88.34983 2674 ft 183 kts 310°
2026-05-07 14:49 44.42909 -88.36591 2679 ft 178 kts 259°
2026-05-07 14:49 44.42293 -88.38057 2711 ft 176 kts 232°
2026-05-07 14:50 44.41878 -88.39643 2671 ft 178 kts 275°
2026-05-07 14:50 44.41931 -88.41378 2654 ft 183 kts 252°
2026-05-07 14:50 44.41107 -88.42615 2686 ft 180 kts 200°
2026-05-07 14:50 44.39891 -88.42917 2694 ft 177 kts 198°
2026-05-07 14:51 44.38741 -88.43475 2698 ft 173 kts 205°
2026-05-07 14:51 44.37639 -88.44121 2681 ft 170 kts 207°
2026-05-07 14:51 44.36574 -88.44792 2681 ft 165 kts 207°
2026-05-07 14:51 44.35533 -88.45469 2715 ft 164 kts 208°
2026-05-07 14:52 44.34520 -88.46115 2528 ft 159 kts 208°
2026-05-07 14:52 44.33525 -88.46768 2184 ft 156 kts 208°
2026-05-07 14:52 44.32560 -88.47412 1842 ft 151 kts 208°
2026-05-07 14:52 44.31624 -88.48038 1537 ft 148 kts 207°
2026-05-07 14:53 44.30705 -88.48676 1457 ft 148 kts 208°
2026-05-07 14:53 44.29760 -88.49296 1455 ft 151 kts 207°
2026-05-07 14:53 44.28805 -88.49938 1384 ft 154 kts 208°
2026-05-07 14:53 44.27839 -88.50600 1150 ft 154 kts 207°
2026-05-07 14:54 44.26891 -88.51260 944 ft 150 kts 206°
2026-05-07 14:54 44.25962 -88.51891 903 ft 149 kts 206°
2026-05-07 14:54 44.25232 -88.52392 894 ft 50 kts 206°
2026-05-07 14:54 44.25010 -88.52541 894 ft 21 kts 205°
2026-05-07 14:55 44.24885 -88.52545 891 ft 13 kts 127°
2026-05-07 14:55 44.24908 -88.52443 895 ft 13 kts 34°
2026-05-07 14:55 44.25007 -88.52375 894 ft 20 kts 26°
2026-05-07 14:55 44.25140 -88.52283 893 ft 23 kts 26°
2026-05-07 14:56 44.25271 -88.52191 891 ft 20 kts 26°
2026-05-07 14:56 44.25388 -88.52111 892 ft 15 kts 26°
2026-05-07 14:56 44.25491 -88.52043 892 ft 19 kts 27°
2026-05-07 14:56 44.25612 -88.51960 894 ft 14 kts 25°
2026-05-07 14:57 44.25704 -88.51895 896 ft 16 kts 27°
2026-05-07 14:57 44.25801 -88.51831 897 ft 15 kts 25°
2026-05-07 14:57 44.25852 -88.51782 897 ft 6 kts 72°
2026-05-07 14:57 44.25856 -88.51685 893 ft 15 kts 78°
2026-05-07 14:58 44.25871 -88.51597 888 ft 3 kts 75°
2026-05-07 14:58 44.25900 -88.51551 888 ft 10 kts 15°
2026-05-07 14:58 44.25978 -88.51567 889 ft 12 kts 355°
2026-05-07 14:58 44.26056 -88.51561 889 ft 11 kts 23°
2026-05-07 14:59 44.26118 -88.51503 889 ft 8 kts 60°
2026-05-07 14:59 44.26127 -88.51442 889 ft 6 kts 90°
2026-05-07 14:59 44.26125 -88.51379 888 ft 7 kts 92°
2026-05-07 14:59 44.26109 -88.51336 887 ft 4 kts 157°
2026-05-07 15:00 44.26093 -88.51337 887 ft 2 kts 196°
2026-05-07 15:00 44.26084 -88.51342 887 ft 0 kts 200°
2026-05-07 15:00 44.26081 -88.51342 887 ft 0 kts 194°
2026-05-07 15:00 44.26079 -88.51344 887 ft 1 kts 202°
2026-05-07 15:01 44.26072 -88.51348 887 ft 1 kts 202°
2026-05-07 15:01 44.26068 -88.51350 887 ft 0 kts 202°